| time (UTC) | temp F | wind direction | speed knots | gust knots | rain 1hr in | rain 24hr in | rain mn in | humidity % | barometer mb |
| 20260905111055 | 68 | 0 | 0.0 | 0.0 | 0.00 | 0.02 | 0.00 | 84 | 1021.0 |
| 20260905110555 | 68 | 0 | 0.0 | 0.0 | 0.00 | 0.02 | 0.00 | 84 | 1021.0 |
| 20260905110101 | 68 | 0 | 0.0 | 0.0 | 0.00 | 0.02 | 0.00 | 84 | 1021.0 |
| 20260905105554 | 69 | 0 | 0.0 | 0.0 | 0.00 | 0.02 | 0.00 | 84 | 1021.0 |
| 20260905105056 | 69 | 0 | 0.0 | 0.0 | 0.00 | 0.02 | 0.00 | 83 | 1020.9 |
| 20260905104605 | 69 | 0 | 0.0 | 0.0 | 0.00 | 0.02 | 0.00 | 83 | 1020.8 |
| 20260905104054 | 69 | 0 | 0.0 | 0.0 | 0.00 | 0.02 | 0.00 | 83 | 1020.9 |
| 20260905103554 | 69 | 0 | 0.0 | 0.0 | 0.00 | 0.02 | 0.00 | 82 | 1021.0 |
| 20260905103103 | 69 | 0 | 0.0 | 0.0 | 0.00 | 0.02 | 0.00 | 82 | 1020.9 |
| 20260905102555 | 69 | 0 | 0.0 | 0.0 | 0.00 | 0.02 | 0.00 | 83 | 1020.8 |
| 20260905102054 | 69 | 0 | 0.0 | 0.0 | 0.00 | 0.02 | 0.00 | 83 | 1020.8 |
| 20260905101600 | 69 | 0 | 0.0 | 0.0 | 0.00 | 0.02 | 0.00 | 83 | 1020.9 |
| 20260905101055 | 69 | 0 | 0.0 | 0.0 | 0.00 | 0.02 | 0.00 | 83 | 1020.8 |
| 20260905100555 | 69 | 0 | 0.0 | 0.0 | 0.00 | 0.02 | 0.00 | 83 | 1020.8 |
| 20260905100105 | 69 | 0 | 0.0 | 0.0 | 0.00 | 0.02 | 0.00 | 83 | 1020.7 |
| 20260905095554 | 69 | 0 | 0.0 | 0.0 | 0.00 | 0.02 | 0.00 | 83 | 1020.7 |
| 20260905095055 | 69 | 0 | 0.0 | 0.0 | 0.00 | 0.02 | 0.00 | 83 | 1020.7 |
| 20260905094602 | 69 | 0 | 0.0 | 0.0 | 0.00 | 0.02 | 0.00 | 83 | 1020.6 |
| 20260905094054 | 69 | 0 | 0.0 | 0.0 | 0.00 | 0.02 | 0.00 | 83 | 1020.7 |
| 20260905093555 | 69 | 0 | 0.0 | 0.0 | 0.00 | 0.02 | 0.00 | 83 | 1020.7 |
| 20260905093107 | 69 | 0 | 0.0 | 0.0 | 0.00 | 0.02 | 0.00 | 84 | 1020.7 |
| 20260905092557 | 70 | 0 | 0.0 | 0.0 | 0.00 | 0.02 | 0.00 | 83 | 1020.7 |
| 20260905092054 | 70 | 0 | 0.0 | 0.0 | 0.00 | 0.02 | 0.00 | 83 | 1020.8 |
| 20260905091604 | 70 | 0 | 0.0 | 0.0 | 0.00 | 0.02 | 0.00 | 83 | 1020.8 |
| 20260905091054 | 70 | 0 | 0.0 | 0.0 | 0.00 | 0.02 | 0.00 | 83 | 1020.8 |
| 20260905090555 | 70 | 0 | 0.0 | 0.0 | 0.00 | 0.02 | 0.00 | 83 | 1020.8 |
| 20260905085555 | 70 | 0 | 0.0 | 0.0 | 0.00 | 0.02 | 0.00 | 83 | 1021.0 |
| 20260905085054 | 70 | 0 | 0.0 | 0.0 | 0.00 | 0.02 | 0.00 | 83 | 1021.0 |
| 20260905084603 | 70 | 0 | 0.0 | 0.0 | 0.00 | 0.02 | 0.00 | 83 | 1020.9 |
| 20260905084056 | 70 | 0 | 0.0 | 0.0 | 0.00 | 0.02 | 0.00 | 83 | 1020.9 |
| 20260905083555 | 70 | 0 | 0.0 | 0.0 | 0.00 | 0.02 | 0.00 | 83 | 1020.9 |
| 20260905083101 | 70 | 0 | 0.0 | 0.0 | 0.00 | 0.02 | 0.00 | 83 | 1020.9 |
| 20260905082554 | 70 | 0 | 0.0 | 0.0 | 0.00 | 0.02 | 0.00 | 83 | 1021.0 |
| 20260905082054 | 70 | 0 | 0.0 | 0.0 | 0.00 | 0.02 | 0.00 | 83 | 1020.9 |
| 20260905081613 | 70 | 0 | 0.0 | 0.0 | 0.00 | 0.02 | 0.00 | 83 | 1021.0 |
| 20260905081055 | 70 | 0 | 0.0 | 0.0 | 0.00 | 0.02 | 0.00 | 83 | 1021.0 |
| 20260905080557 | 70 | 0 | 0.0 | 0.0 | 0.00 | 0.02 | 0.00 | 83 | 1021.2 |
| 20260905080101 | 70 | 0 | 0.0 | 0.0 | 0.00 | 0.02 | 0.00 | 83 | 1021.1 |
| 20260905075555 | 70 | 0 | 0.0 | 0.0 | 0.00 | 0.02 | 0.00 | 83 | 1021.0 |
| 20260905075054 | 70 | 0 | 0.0 | 0.0 | 0.00 | 0.02 | 0.00 | 83 | 1021.2 |
| 20260905074600 | 70 | 0 | 0.0 | 0.0 | 0.00 | 0.02 | 0.00 | 83 | 1021.1 |
| 20260905074054 | 70 | 0 | 0.0 | 0.0 | 0.00 | 0.02 | 0.00 | 83 | 1021.2 |
| 20260905073556 | 70 | 0 | 0.0 | 0.0 | 0.00 | 0.02 | 0.00 | 83 | 1021.3 |
| 20260905073103 | 70 | 0 | 0.0 | 0.0 | 0.00 | 0.02 | 0.00 | 82 | 1021.3 |
| 20260905072555 | 70 | 0 | 0.0 | 0.0 | 0.00 | 0.02 | 0.00 | 82 | 1021.3 |
| 20260905072054 | 70 | 0 | 0.0 | 0.9 | 0.00 | 0.02 | 0.00 | 82 | 1021.2 |
| 20260905071608 | 70 | 0 | 0.0 | 0.9 | 0.00 | 0.02 | 0.00 | 82 | 1021.3 |
| 20260905071054 | 70 | 0 | 0.0 | 0.9 | 0.00 | 0.02 | 0.00 | 82 | 1021.3 |
| 20260905070554 | 70 | 0 | 0.0 | 0.9 | 0.00 | 0.02 | 0.00 | 81 | 1021.3 |
| 20260905070105 | 70 | 0 | 0.0 | 0.9 | 0.00 | 0.02 | 0.00 | 81 | 1021.2 |
| 20260905065554 | 71 | 0 | 0.0 | 0.9 | 0.00 | 0.02 | 0.02 | 80 | 1021.3 |
| 20260905065054 | 71 | 0 | 0.0 | 0.9 | 0.00 | 0.02 | 0.02 | 80 | 1021.5 |
| 20260905064601 | 71 | 0 | 0.0 | 0.9 | 0.00 | 0.02 | 0.02 | 79 | 1021.4 |
| 20260905064054 | 71 | 0 | 0.0 | 0.9 | 0.00 | 0.02 | 0.02 | 79 | 1021.5 |
| 20260905063555 | 71 | 0 | 0.0 | 0.9 | 0.00 | 0.02 | 0.02 | 78 | 1021.4 |
| 20260905063111 | 71 | 0 | 0.0 | 0.9 | 0.00 | 0.02 | 0.02 | 78 | 1021.4 |
| 20260905062552 | 71 | 0 | 0.0 | 0.9 | 0.00 | 0.02 | 0.02 | 78 | 1021.4 |
| 20260905062055 | 71 | 0 | 0.0 | 1.7 | 0.00 | 0.02 | 0.02 | 78 | 1021.4 |
| 20260905061615 | 71 | 75 | 0.0 | 1.7 | 0.00 | 0.02 | 0.02 | 79 | 1021.5 |
| 20260905061055 | 72 | 0 | 0.0 | 0.9 | 0.00 | 0.02 | 0.02 | 79 | 1021.5 |
| 20260905060554 | 72 | 0 | 0.0 | 1.7 | 0.00 | 0.02 | 0.02 | 78 | 1021.5 |
| 20260905055554 | 72 | 75 | 0.0 | 1.7 | 0.00 | 0.02 | 0.02 | 77 | 1021.4 |
| 20260905055054 | 72 | 0 | 0.0 | 1.7 | 0.00 | 0.02 | 0.02 | 76 | 1021.4 |
| 20260905054600 | 72 | 0 | 0.0 | 1.7 | 0.00 | 0.02 | 0.02 | 76 | 1021.5 |
| 20260905054054 | 72 | 75 | 0.9 | 1.7 | 0.00 | 0.02 | 0.02 | 76 | 1021.5 |
| 20260905053554 | 72 | 0 | 0.0 | 2.6 | 0.00 | 0.02 | 0.02 | 75 | 1021.4 |
| 20260905053105 | 73 | 0 | 0.0 | 4.3 | 0.00 | 0.02 | 0.02 | 75 | 1021.4 |
| 20260905052554 | 73 | 75 | 1.7 | 4.3 | 0.00 | 0.02 | 0.02 | 74 | 1021.4 |
| 20260905052055 | 73 | 61 | 1.7 | 3.5 | 0.00 | 0.02 | 0.02 | 73 | 1021.3 |
| 20260905051605 | 74 | 60 | 2.6 | 3.5 | 0.00 | 0.02 | 0.02 | 70 | 1021.3 |
| 20260905051054 | 74 | 63 | 1.7 | 3.5 | 0.00 | 0.02 | 0.02 | 67 | 1021.3 |
| 20260905050555 | 75 | 295 | 1.7 | 3.5 | 0.00 | 0.02 | 0.02 | 65 | 1021.3 |
| 20260905045556 | 76 | 253 | 0.0 | 2.6 | 0.00 | 0.02 | 0.02 | 62 | 1021.3 |
| 20260905045054 | 76 | 0 | 0.0 | 1.7 | 0.00 | 0.02 | 0.02 | 61 | 1021.2 |
| 20260905044603 | 76 | 0 | 0.0 | 1.7 | 0.00 | 0.02 | 0.02 | 59 | 1021.1 |
| 20260905044053 | 76 | 0 | 0.0 | 2.6 | 0.00 | 0.02 | 0.02 | 59 | 1021.1 |
| 20260905043556 | 77 | 0 | 0.0 | 2.6 | 0.00 | 0.02 | 0.02 | 58 | 1021.1 |
| 20260905043100 | 77 | 253 | 0.9 | 2.6 | 0.00 | 0.02 | 0.02 | 58 | 1021.1 |
| 20260905042553 | 77 | 253 | 0.0 | 2.6 | 0.00 | 0.02 | 0.02 | 58 | 1021.2 |
| 20260905042055 | 77 | 0 | 0.9 | 2.6 | 0.00 | 0.02 | 0.02 | 57 | 1021.2 |
| 20260905041613 | 77 | 253 | 0.0 | 2.6 | 0.00 | 0.02 | 0.02 | 57 | 1021.2 |
| 20260905041053 | 77 | 253 | 0.0 | 2.6 | 0.00 | 0.02 | 0.02 | 57 | 1021.2 |
| 20260905040553 | 77 | 253 | 0.0 | 2.6 | 0.00 | 0.02 | 0.02 | 57 | 1021.2 |
| 20260905040105 | 77 | 253 | 0.9 | 2.6 | 0.00 | 0.02 | 0.02 | 56 | 1021.3 |
| 20260905035554 | 77 | 253 | 0.9 | 2.6 | 0.00 | 0.02 | 0.02 | 56 | 1021.3 |
| 20260905035053 | 76 | 253 | 1.7 | 2.6 | 0.00 | 0.02 | 0.02 | 56 | 1021.1 |
| 20260905034605 | 76 | 253 | 0.9 | 2.6 | 0.00 | 0.02 | 0.02 | 58 | 1021.1 |
| 20260905034055 | 76 | 255 | 0.9 | 2.6 | 0.00 | 0.02 | 0.02 | 59 | 1021.1 |
| 20260905033552 | 76 | 255 | 0.9 | 2.6 | 0.00 | 0.02 | 0.02 | 60 | 1021.1 |
| 20260905033122 | 76 | 255 | 0.0 | 2.6 | 0.00 | 0.02 | 0.02 | 60 | 1021.0 |
| 20260905032556 | 76 | 255 | 0.9 | 2.6 | 0.00 | 0.02 | 0.02 | 60 | 1021.0 |
| 20260905032055 | 76 | 255 | 0.9 | 2.6 | 0.00 | 0.02 | 0.02 | 60 | 1020.9 |
| 20260905031611 | 76 | 255 | 0.9 | 2.6 | 0.00 | 0.02 | 0.02 | 61 | 1020.7 |
| 20260905031054 | 76 | 255 | 0.9 | 2.6 | 0.00 | 0.02 | 0.02 | 61 | 1020.6 |
| 20260905030554 | 77 | 255 | 1.7 | 2.6 | 0.00 | 0.02 | 0.02 | 60 | 1020.6 |
| 20260905030109 | 77 | 255 | 0.9 | 3.5 | 0.00 | 0.02 | 0.02 | 60 | 1020.4 |
| 20260905025554 | 77 | 0 | 0.9 | 3.5 | 0.00 | 0.02 | 0.02 | 59 | 1020.4 |
| 20260905025054 | 77 | 257 | 1.7 | 2.6 | 0.00 | 0.02 | 0.02 | 59 | 1020.3 |
| 20260905024602 | 77 | 243 | 0.9 | 2.6 | 0.00 | 0.02 | 0.02 | 58 | 1020.3 |
| 20260905024054 | 77 | 243 | 0.9 | 2.6 | 0.00 | 0.02 | 0.02 | 58 | 1020.2 |
| 20260905023557 | 77 | 243 | 0.9 | 3.5 | 0.00 | 0.02 | 0.02 | 58 | 1020.1 |
| 20260905023105 | 77 | 243 | 0.9 | 3.5 | 0.00 | 0.02 | 0.02 | 59 | 1020.1 |
| 20260905022557 | 77 | 243 | 1.7 | 3.5 | 0.00 | 0.02 | 0.02 | 59 | 1020.1 |
| 20260905022054 | 77 | 244 | 1.7 | 3.5 | 0.00 | 0.02 | 0.02 | 59 | 1020.0 |
| 20260905021600 | 78 | 220 | 1.7 | 4.3 | 0.00 | 0.02 | 0.02 | 59 | 1020.0 |
| 20260905021056 | 78 | 219 | 1.7 | 4.3 | 0.00 | 0.02 | 0.02 | 59 | 1019.9 |
| 20260905020557 | 78 | 229 | 1.7 | 5.2 | 0.00 | 0.02 | 0.02 | 58 | 1019.9 |
| 20260905020112 | 78 | 229 | 1.7 | 5.2 | 0.00 | 0.02 | 0.02 | 58 | 1019.9 |
| 20260905015555 | 79 | 224 | 1.7 | 5.2 | 0.00 | 0.02 | 0.02 | 57 | 1020.0 |
| 20260905015055 | 79 | 253 | 0.9 | 2.6 | 0.00 | 0.02 | 0.02 | 54 | 1020.0 |
| 20260905014605 | 79 | 0 | 0.0 | 1.7 | 0.00 | 0.02 | 0.02 | 55 | 1019.9 |
| 20260905014054 | 79 | 0 | 0.0 | 0.0 | 0.00 | 0.02 | 0.02 | 54 | 1020.0 |
| 20260905013554 | 80 | 0 | 0.0 | 0.0 | 0.00 | 0.02 | 0.02 | 53 | 1019.9 |
| 20260905013112 | 80 | 0 | 0.0 | 0.0 | 0.00 | 0.02 | 0.02 | 53 | 1020.0 |
| 20260905012554 | 80 | 0 | 0.0 | 0.0 | 0.00 | 0.02 | 0.02 | 52 | 1020.1 |
| 20260905012053 | 80 | 0 | 0.0 | 0.0 | 0.00 | 0.02 | 0.02 | 52 | 1020.0 |
| 20260905011632 | 80 | 0 | 0.0 | 1.7 | 0.00 | 0.02 | 0.02 | 51 | 1020.0 |
| 20260905011055 | 80 | 0 | 0.0 | 1.7 | 0.00 | 0.02 | 0.02 | 52 | 1019.9 |
| 20260905010553 | 81 | 0 | 0.0 | 1.7 | 0.00 | 0.02 | 0.02 | 52 | 1019.9 |
| 20260905010105 | 81 | 0 | 0.0 | 1.7 | 0.00 | 0.02 | 0.02 | 52 | 1019.8 |
| 20260905005551 | 81 | 0 | 0.9 | 2.6 | 0.00 | 0.02 | 0.02 | 51 | 1019.8 |
| 20260905005053 | 81 | 283 | 0.0 | 2.6 | 0.00 | 0.02 | 0.02 | 50 | 1019.7 |
| 20260905004601 | 82 | 283 | 0.0 | 2.6 | 0.00 | 0.02 | 0.02 | 51 | 1019.8 |
| 20260905004054 | 82 | 0 | 0.0 | 3.5 | 0.00 | 0.02 | 0.02 | 51 | 1019.8 |
| 20260905003556 | 82 | 283 | 0.0 | 3.5 | 0.00 | 0.02 | 0.02 | 51 | 1019.8 |
| 20260905003101 | 82 | 283 | 0.0 | 2.6 | 0.00 | 0.02 | 0.02 | 50 | 1019.8 |
| 20260905002553 | 82 | 0 | 0.0 | 2.6 | 0.00 | 0.02 | 0.02 | 51 | 1019.8 |
| 20260905002054 | 82 | 282 | 0.0 | 4.3 | 0.00 | 0.02 | 0.02 | 51 | 1019.7 |
| 20260905001605 | 83 | 283 | 0.9 | 5.2 | 0.00 | 0.02 | 0.02 | 52 | 1019.6 |
| 20260905001057 | 83 | 286 | 0.9 | 7.8 | 0.00 | 0.02 | 0.02 | 52 | 1019.5 |
| 20260905000554 | 83 | 286 | 2.6 | 7.8 | 0.00 | 0.02 | 0.02 | 52 | 1019.5 |
| 20260904235556 | 83 | 259 | 2.6 | 7.0 | 0.00 | 0.02 | 0.02 | 51 | 1019.3 |
| 20260904235059 | 83 | 285 | 1.7 | 7.0 | 0.01 | 0.02 | 0.02 | 52 | 1019.2 |
| 20260904234601 | 83 | 286 | 1.7 | 7.0 | 0.02 | 0.02 | 0.02 | 49 | 1019.1 |
| 20260904234057 | 84 | 300 | 0.9 | 7.0 | 0.02 | 0.02 | 0.02 | 49 | 1019.1 |
| 20260904233557 | 84 | 266 | 0.9 | 8.7 | 0.02 | 0.02 | 0.02 | 52 | 1019.1 |
| 20260904233100 | 84 | 288 | 2.6 | 8.7 | 0.02 | 0.02 | 0.02 | 51 | 1019.2 |
| 20260904232553 | 84 | 271 | 3.5 | 8.7 | 0.02 | 0.02 | 0.02 | 50 | 1019.2 |
| 20260904232053 | 83 | 317 | 3.5 | 7.0 | 0.02 | 0.02 | 0.02 | 52 | 1019.2 |
| 20260904231606 | 82 | 308 | 1.7 | 4.3 | 0.02 | 0.02 | 0.02 | 55 | 1019.2 |
| 20260904231055 | 81 | 300 | 0.9 | 3.5 | 0.02 | 0.02 | 0.02 | 56 | 1019.2 |
| 20260904230555 | 80 | 293 | 0.9 | 4.3 | 0.02 | 0.02 | 0.02 | 63 | 1019.4 |
| 20260904230105 | 80 | 310 | 0.0 | 6.1 | 0.02 | 0.02 | 0.02 | 67 | 1019.4 |
| 20260904225557 | 81 | 309 | 1.7 | 7.8 | 0.02 | 0.02 | 0.02 | 63 | 1019.5 |
| 20260904225057 | 82 | 287 | 4.3 | 7.8 | 0.01 | 0.01 | 0.01 | 58 | 1019.5 |
| 20260904224602 | 82 | 289 | 3.5 | 7.0 | 0.00 | 0.00 | 0.00 | 53 | 1019.6 |
| 20260904224100 | 82 | 322 | 2.6 | 7.8 | 0.00 | 0.00 | 0.00 | 54 | 1019.6 |
| 20260904223556 | 82 | 333 | 2.6 | 7.8 | 0.00 | 0.00 | 0.00 | 55 | 1019.7 |
| 20260904223104 | 83 | 296 | 4.3 | 7.8 | 0.00 | 0.00 | 0.00 | 54 | 1019.7 |
| 20260904222555 | 83 | 338 | 3.5 | 7.0 | 0.00 | 0.00 | 0.00 | 53 | 1019.7 |
| 20260904222055 | 84 | 326 | 2.6 | 7.0 | 0.00 | 0.00 | 0.00 | 51 | 1019.6 |
| 20260904221606 | 84 | 301 | 2.6 | 6.1 | 0.00 | 0.00 | 0.00 | 49 | 1019.8 |
| 20260904221058 | 84 | 328 | 2.6 | 7.0 | 0.00 | 0.00 | 0.00 | 48 | 1019.6 |
| 20260904220555 | 84 | 295 | 2.6 | 7.0 | 0.00 | 0.00 | 0.00 | 48 | 1019.7 |
| 20260904220109 | 83 | 311 | 3.5 | 6.1 | 0.00 | 0.00 | 0.00 | 51 | 1019.7 |
| 20260904215554 | 82 | 290 | 3.5 | 7.8 | 0.00 | 0.00 | 0.00 | 54 | 1019.6 |
| 20260904215058 | 82 | 320 | 4.3 | 7.8 | 0.00 | 0.00 | 0.00 | 55 | 1019.7 |
| 20260904214600 | 81 | 348 | 1.7 | 6.1 | 0.00 | 0.00 | 0.00 | 57 | 1019.8 |
| 20260904214056 | 80 | 291 | 3.5 | 6.1 | 0.00 | 0.00 | 0.00 | 58 | 1019.8 |
| 20260904213555 | 80 | 300 | 3.5 | 6.1 | 0.00 | 0.00 | 0.00 | 57 | 1019.9 |
| 20260904213109 | 80 | 315 | 3.5 | 6.1 | 0.00 | 0.00 | 0.00 | 59 | 1019.9 |
| 20260904212555 | 80 | 327 | 2.6 | 7.0 | 0.00 | 0.00 | 0.00 | 60 | 1020.1 |
| 20260904212055 | 80 | 295 | 2.6 | 7.0 | 0.00 | 0.00 | 0.00 | 59 | 1020.1 |
| 20260904211601 | 80 | 317 | 3.5 | 7.0 | 0.00 | 0.00 | 0.00 | 61 | 1020.1 |
| 20260904211055 | 81 | 288 | 3.5 | 11.3 | 0.00 | 0.00 | 0.00 | 60 | 1020.2 |
| 20260904210556 | 81 | 303 | 6.1 | 11.3 | 0.00 | 0.00 | 0.00 | 58 | 1020.2 |
| 20260904210104 | 81 | 290 | 5.2 | 8.7 | 0.00 | 0.00 | 0.00 | 56 | 1020.3 |
| 20260904205554 | 82 | 290 | 6.1 | 9.6 | 0.00 | 0.00 | 0.00 | 55 | 1020.3 |
| 20260904205055 | 83 | 283 | 4.3 | 9.6 | 0.00 | 0.00 | 0.00 | 53 | 1020.4 |
| 20260904204604 | 83 | 328 | 6.1 | 9.6 | 0.00 | 0.00 | 0.00 | 52 | 1020.3 |
| 20260904204059 | 84 | 359 | 0.9 | 2.6 | 0.00 | 0.00 | 0.00 | 48 | 1020.2 |
| 20260904203554 | 83 | 53 | 0.0 | 3.5 | 0.00 | 0.00 | 0.00 | 49 | 1020.3 |
| 20260904203104 | 83 | 53 | 1.7 | 5.2 | 0.00 | 0.00 | 0.00 | 48 | 1020.4 |
| 20260904202556 | 84 | 30 | 1.7 | 5.2 | 0.00 | 0.00 | 0.00 | 48 | 1020.4 |
| 20260904202054 | 84 | 27 | 2.6 | 5.2 | 0.00 | 0.00 | 0.00 | 48 | 1020.5 |
| 20260904201558 | 84 | 32 | 2.6 | 4.3 | 0.00 | 0.00 | 0.00 | 49 | 1020.5 |
| 20260904201054 | 83 | 30 | 1.7 | 4.3 | 0.00 | 0.00 | 0.00 | 51 | 1020.6 |
| 20260904200555 | 82 | 25 | 1.7 | 4.3 | 0.00 | 0.00 | 0.00 | 52 | 1020.7 |
| 20260904200105 | 82 | 355 | 1.7 | 4.3 | 0.00 | 0.00 | 0.00 | 52 | 1020.9 |
| 20260904195554 | 82 | 355 | 2.6 | 5.2 | 0.00 | 0.00 | 0.00 | 53 | 1020.9 |
| 20260904195059 | 82 | 360 | 2.6 | 5.2 | 0.00 | 0.00 | 0.00 | 53 | 1021.0 |
| 20260904194634 | 82 | 2 | 2.6 | 4.3 | 0.00 | 0.00 | 0.00 | 53 | 1021.0 |
| 20260904194055 | 82 | 356 | 1.7 | 4.3 | 0.00 | 0.00 | 0.00 | 52 | 1021.0 |
| 20260904193556 | 82 | 356 | 1.7 | 6.1 | 0.00 | 0.00 | 0.00 | 53 | 1021.1 |
| 20260904193103 | 82 | 348 | 2.6 | 6.1 | 0.00 | 0.00 | 0.00 | 52 | 1021.2 |
| 20260904192600 | 83 | 323 | 2.6 | 5.2 | 0.00 | 0.00 | 0.00 | 52 | 1021.4 |
| 20260904192056 | 83 | 299 | 1.7 | 5.2 | 0.00 | 0.00 | 0.00 | 52 | 1021.5 |
| 20260904191602 | 83 | 23 | 2.6 | 4.3 | 0.00 | 0.00 | 0.00 | 52 | 1021.5 |
| 20260904191054 | 82 | 32 | 1.7 | 4.3 | 0.00 | 0.00 | 0.00 | 55 | 1021.5 |
| 20260904190555 | 82 | 30 | 1.7 | 3.5 | 0.00 | 0.00 | 0.00 | 54 | 1021.5 |
| 20260904185555 | 81 | 0 | 1.7 | 4.3 | 0.00 | 0.00 | 0.00 | 54 | 1021.8 |
| 20260904185055 | 81 | 29 | 1.7 | 4.3 | 0.00 | 0.00 | 0.00 | 54 | 1021.8 |
| 20260904184604 | 82 | 65 | 0.9 | 3.5 | 0.00 | 0.00 | 0.00 | 54 | 1022.0 |
| 20260904184055 | 82 | 65 | 0.9 | 3.5 | 0.00 | 0.00 | 0.00 | 54 | 1022.0 |
| 20260904183555 | 81 | 0 | 0.9 | 3.5 | 0.00 | 0.00 | 0.00 | 54 | 1022.0 |
| 20260904183116 | 81 | 0 | 0.0 | 4.3 | 0.00 | 0.00 | 0.00 | 55 | 1022.0 |
| 20260904182556 | 81 | 46 | 2.6 | 6.1 | 0.00 | 0.00 | 0.00 | 55 | 1022.1 |
| 20260904182052 | 82 | 274 | 1.7 | 6.1 | 0.00 | 0.00 | 0.00 | 54 | 1022.1 |
| 20260904181610 | 82 | 0 | 1.7 | 5.2 | 0.00 | 0.00 | 0.00 | 55 | 1022.1 |
| 20260904181053 | 81 | 13 | 3.5 | 5.2 | 0.00 | 0.00 | 0.00 | 57 | 1022.1 |
| 20260904180554 | 80 | 356 | 2.6 | 4.3 | 0.00 | 0.00 | 0.00 | 59 | 1022.3 |
| 20260904180106 | 80 | 358 | 0.9 | 6.1 | 0.00 | 0.00 | 0.00 | 57 | 1022.3 |
| 20260904175555 | 80 | 359 | 0.9 | 6.1 | 0.00 | 0.00 | 0.00 | 57 | 1022.3 |
| 20260904175051 | 81 | 244 | 2.6 | 6.1 | 0.00 | 0.00 | 0.00 | 56 | 1022.3 |
| 20260904174604 | 81 | 189 | 0.9 | 4.3 | 0.00 | 0.00 | 0.00 | 56 | 1022.2 |
| 20260904174051 | 81 | 243 | 1.7 | 4.3 | 0.00 | 0.00 | 0.00 | 57 | 1022.3 |
| 20260904173552 | 80 | 292 | 1.7 | 4.3 | 0.00 | 0.00 | 0.00 | 57 | 1022.3 |
| 20260904173059 | 80 | 0 | 0.0 | 7.0 | 0.00 | 0.00 | 0.00 | 57 | 1022.4 |
| 20260904172555 | 80 | 304 | 3.5 | 7.0 | 0.00 | 0.00 | 0.00 | 57 | 1022.5 |
| 20260904172051 | 80 | 332 | 2.6 | 7.0 | 0.00 | 0.00 | 0.00 | 58 | 1022.4 |
| 20260904171621 | 81 | 47 | 2.6 | 7.8 | 0.00 | 0.00 | 0.00 | 56 | 1022.5 |
| 20260904171051 | 81 | 319 | 2.6 | 7.8 | 0.00 | 0.00 | 0.00 | 56 | 1022.6 |
| 20260904170550 | 81 | 312 | 4.3 | 7.8 | 0.00 | 0.00 | 0.00 | 56 | 1022.6 |
| 20260904170105 | 81 | 20 | 3.5 | 6.1 | 0.00 | 0.00 | 0.00 | 57 | 1022.6 |
| 20260904165552 | 81 | 352 | 2.6 | 6.1 | 0.00 | 0.00 | 0.00 | 59 | 1022.6 |
| 20260904165052 | 80 | 353 | 2.6 | 6.1 | 0.00 | 0.00 | 0.00 | 58 | 1022.6 |
| 20260904164608 | 80 | 284 | 0.9 | 4.3 | 0.00 | 0.00 | 0.00 | 59 | 1022.6 |
| 20260904164052 | 80 | 63 | 1.7 | 4.3 | 0.00 | 0.00 | 0.00 | 58 | 1022.4 |
| 20260904163552 | 80 | 29 | 1.7 | 7.0 | 0.00 | 0.00 | 0.00 | 60 | 1022.3 |
| 20260904163100 | 79 | 327 | 1.7 | 7.0 | 0.00 | 0.00 | 0.00 | 60 | 1022.4 |
| 20260904162554 | 79 | 44 | 1.7 | 5.2 | 0.00 | 0.00 | 0.00 | 62 | 1022.4 |
| 20260904162050 | 79 | 25 | 0.9 | 4.3 | 0.00 | 0.00 | 0.00 | 61 | 1022.4 |
| 20260904161605 | 78 | 58 | 1.7 | 4.3 | 0.00 | 0.00 | 0.00 | 61 | 1022.4 |
| 20260904161050 | 78 | 31 | 1.7 | 4.3 | 0.00 | 0.00 | 0.00 | 62 | 1022.4 |
| 20260904160552 | 78 | 14 | 2.6 | 4.3 | 0.00 | 0.00 | 0.00 | 64 | 1022.4 |
| 20260904160107 | 77 | 18 | 0.9 | 3.5 | 0.00 | 0.00 | 0.00 | 64 | 1022.4 |
| 20260904155551 | 77 | 18 | 1.7 | 3.5 | 0.00 | 0.00 | 0.00 | 65 | 1022.4 |
| 20260904155056 | 76 | 18 | 1.7 | 4.3 | 0.00 | 0.00 | 0.00 | 66 | 1022.4 |
| 20260904154604 | 76 | 18 | 0.9 | 5.2 | 0.00 | 0.00 | 0.00 | 69 | 1022.4 |
| 20260904154052 | 76 | 18 | 1.7 | 5.2 | 0.00 | 0.00 | 0.00 | 71 | 1022.5 |
| 20260904153552 | 76 | 18 | 0.9 | 3.5 | 0.00 | 0.00 | 0.00 | 73 | 1022.5 |
| 20260904153109 | 75 | 14 | 0.9 | 3.5 | 0.00 | 0.00 | 0.00 | 73 | 1022.4 |
| 20260904152551 | 74 | 14 | 0.9 | 2.6 | 0.00 | 0.00 | 0.00 | 73 | 1022.3 |
| 20260904152057 | 74 | 14 | 0.9 | 2.6 | 0.00 | 0.00 | 0.00 | 75 | 1022.4 |
| 20260904151606 | 73 | 14 | 0.9 | 2.6 | 0.00 | 0.00 | 0.00 | 77 | 1022.3 |
| 20260904151055 | 73 | 0 | 0.0 | 2.6 | 0.00 | 0.00 | 0.00 | 79 | 1022.3 |
| 20260904150555 | 72 | 14 | 0.9 | 2.6 | 0.00 | 0.00 | 0.00 | 80 | 1022.3 |
| 20260904145559 | 71 | 14 | 0.0 | 3.5 | 0.00 | 0.00 | 0.00 | 84 | 1022.3 |
| 20260904145057 | 71 | 14 | 1.7 | 3.5 | 0.00 | 0.00 | 0.00 | 85 | 1022.3 |
| 20260904144604 | 70 | 14 | 0.9 | 2.6 | 0.00 | 0.00 | 0.00 | 87 | 1022.3 |
| 20260904144054 | 69 | 14 | 0.9 | 2.6 | 0.00 | 0.00 | 0.00 | 87 | 1022.3 |
| 20260904143555 | 69 | 14 | 0.9 | 2.6 | 0.00 | 0.00 | 0.00 | 89 | 1022.2 |
| 20260904143136 | 69 | 14 | 0.0 | 1.7 | 0.00 | 0.00 | 0.00 | 90 | 1022.1 |
| 20260904142558 | 68 | 0 | 0.0 | 1.7 | 0.00 | 0.00 | 0.00 | 91 | 1022.1 |
| 20260904142056 | 67 | 14 | 0.0 | 0.9 | 0.00 | 0.00 | 0.00 | 91 | 1022.0 |
| 20260904141609 | 67 | 0 | 0.0 | 1.7 | 0.00 | 0.00 | 0.00 | 92 | 1022.1 |
| 20260904141054 | 67 | 0 | 0.0 | 1.7 | 0.00 | 0.00 | 0.00 | 92 | 1021.9 |
| 20260904140555 | 66 | 0 | 0.0 | 1.7 | 0.00 | 0.00 | 0.00 | 92 | 1021.9 |
| 20260904140104 | 66 | 14 | 0.0 | 2.6 | 0.00 | 0.00 | 0.00 | 93 | 1021.9 |
| 20260904135557 | 65 | 0 | 0.0 | 2.6 | 0.00 | 0.00 | 0.00 | 93 | 1021.9 |
| 20260904135055 | 65 | 14 | 0.0 | 1.7 | 0.00 | 0.00 | 0.00 | 93 | 1021.8 |
| 20260904134607 | 64 | 0 | 0.0 | 1.7 | 0.00 | 0.00 | 0.00 | 93 | 1021.7 |
| 20260904134100 | 64 | 0 | 0.9 | 1.7 | 0.00 | 0.00 | 0.00 | 92 | 1021.6 |
| 20260904133554 | 63 | 14 | 0.9 | 1.7 | 0.00 | 0.00 | 0.00 | 93 | 1021.6 |
| 20260904133105 | 63 | 0 | 0.0 | 1.7 | 0.00 | 0.00 | 0.00 | 92 | 1021.6 |
| 20260904132556 | 63 | 14 | 0.9 | 1.7 | 0.00 | 0.00 | 0.00 | 92 | 1021.5 |
| 20260904132054 | 63 | 0 | 0.0 | 1.7 | 0.00 | 0.00 | 0.00 | 92 | 1021.5 |
| 20260904131613 | 62 | 14 | 0.0 | 1.7 | 0.00 | 0.00 | 0.00 | 92 | 1021.5 |
| 20260904131054 | 62 | 14 | 0.0 | 0.9 | 0.00 | 0.00 | 0.00 | 92 | 1021.5 |
| 20260904130555 | 62 | 0 | 0.0 | 1.7 | 0.00 | 0.00 | 0.00 | 91 | 1021.4 |
| 20260904130104 | 62 | 0 | 0.0 | 1.7 | 0.00 | 0.00 | 0.00 | 91 | 1021.2 |
| 20260904125555 | 62 | 14 | 0.0 | 1.7 | 0.00 | 0.00 | 0.00 | 91 | 1021.2 |
| 20260904125056 | 62 | 14 | 0.0 | 1.7 | 0.00 | 0.00 | 0.00 | 91 | 1021.0 |
| 20260904124606 | 63 | 0 | 0.0 | 0.9 | 0.00 | 0.00 | 0.00 | 92 | 1021.1 |
| 20260904124056 | 63 | 14 | 0.0 | 0.0 | 0.00 | 0.00 | 0.00 | 91 | 1021.0 |
| 20260904123554 | 63 | 0 | 0.0 | 0.0 | 0.00 | 0.00 | 0.00 | 91 | 1021.0 |
| 20260904123104 | 63 | 0 | 0.0 | 0.0 | 0.00 | 0.00 | 0.00 | 91 | 1021.0 |
| 20260904122554 | 63 | 0 | 0.0 | 0.0 | 0.00 | 0.00 | 0.00 | 91 | 1021.0 |
| 20260904122054 | 63 | 0 | 0.0 | 0.0 | 0.00 | 0.00 | 0.00 | 91 | 1020.9 |
| 20260904121601 | 63 | 0 | 0.0 | 0.0 | 0.00 | 0.00 | 0.00 | 91 | 1020.8 |
| 20260904121221 | 63 | 0 | 0.0 | 1.7 | 0.00 | 0.00 | 0.00 | 91 | 1020.7 |
| 20260904120555 | 63 | 0 | 0.0 | 1.7 | 0.00 | 0.00 | 0.00 | 91 | 1020.6 |
| 20260904120109 | 63 | 14 | 0.0 | 2.6 | 0.00 | 0.00 | 0.00 | 91 | 1020.7 |
| 20260904115554 | 63 | 0 | 0.9 | 2.6 | 0.00 | 0.00 | 0.00 | 91 | 1020.6 |
| 20260904115055 | 63 | 14 | 0.9 | 2.6 | 0.00 | 0.00 | 0.00 | 91 | 1020.6 |
| 20260904114610 | 64 | 14 | 0.0 | 0.9 | 0.00 | 0.00 | 0.00 | 91 | 1020.5 |
| 20260904114054 | 64 | 0 | 0.0 | 1.7 | 0.00 | 0.00 | 0.00 | 91 | 1020.4 |
| 20260904113555 | 64 | 0 | 0.0 | 1.7 | 0.00 | 0.00 | 0.00 | 91 | 1020.4 |
| 20260904113103 | 64 | 0 | 0.9 | 2.6 | 0.00 | 0.00 | 0.00 | 91 | 1020.4 |
| 20260904112554 | 64 | 14 | 0.9 | 2.6 | 0.00 | 0.00 | 0.00 | 91 | 1020.4 |
| 20260904112054 | 63 | 14 | 0.9 | 2.6 | 0.00 | 0.00 | 0.00 | 90 | 1020.3 |
| 20260904111604 | 64 | 15 | 0.9 | 2.6 | 0.00 | 0.00 | 0.00 | 90 | 1020.4 |